Flag for Italy Weather past 2 weeks in Avellino, Italy

Now
32 °F

Passing clouds.


Feels Like: 27 °F
Forecast: 35 / 45 °F
Wind: 5 mph from North

Location: Trevico

Current Time: Jan 27, 2015 at 10:40:51 PM

Latest Report: Jan 27, 2015 at 8:55 PM


Visibility: N/A

Pressure: 29.80 "Hg

Humidity: 75%

Dew point: 25 °F

Location of AvellinoLocation

Historic Weather in Avellino — Graph

°F

Avellino temperature yesterday

Maximum temperature yesterday: 32 °F (at 12:55 AM)
Minimum temperature yesterday: 30 °F (at 5:55 AM)
Average temperature yesterday: 31 °F

Past Weeks' High & Low Weather Summary

 TemperatureHumidityPressure
High48 °F (Jan 16, 3:55 PM)100% (Jan 14, 10:55 AM)30.39 "Hg (Jan 14, 10:55 AM)
Low28 °F (Jan 27, 3:55 AM)18% (Jan 12, 8:55 PM)29.36 "Hg (Jan 23, 5:55 AM)
Average38 °F79%29.90 "Hg
* Reported Jan 12 8:55 PM — Jan 27 8:55 PM, Avellino, Weather by CustomWeather, © 2014

Note: Actual official high and low records may vary slightly from our data, if they occured in-between our weather recording intervals... More about our weather records

Advertising

Avellino weather history for previous 24 hours

 ConditionsComfort  
Time TempWeatherWind HumidityBarometerVisibility
8:55 PM
Jan 27
32 °FPassing clouds.5 mph75%29.80 "HgN/A
7:55 PM30 °FPassing clouds.6 mph86%29.80 "HgN/A
6:55 PM30 °FPassing clouds.6 mph93%29.77 "HgN/A
5:55 PM30 °FPassing clouds.9 mph93%29.77 "HgN/A
4:55 PM32 °FScattered clouds.9 mph87%29.77 "HgN/A
11:55 AM32 °FPassing clouds.2 mph75%29.83 "HgN/A
10:55 AM30 °FSunny.3 mph69%29.86 "Hg10 mi
9:55 AM30 °FSunny.5 mph64%29.83 "Hg10 mi
8:55 AM30 °FSunny.6 mph69%29.86 "Hg10 mi
7:55 AM28 °FSunny.9 mph74%29.86 "Hg10 mi
6:55 AM28 °FPassing clouds.8 mph80%29.86 "HgN/A
5:55 AM28 °FPassing clouds.8 mph80%29.86 "HgN/A
3:55 AM28 °FPassing clouds.9 mph86%29.89 "HgN/A
2:55 AM30 °FPassing clouds.9 mph86%29.89 "HgN/A
1:55 AM30 °FPassing clouds.9 mph86%29.92 "HgN/A
12:55 AM30 °FPassing clouds.9 mph86%29.92 "HgN/A
11:55 PM
Jan 26
30 °FPassing clouds.8 mph86%29.95 "HgN/A
10:55 PM30 °FPassing clouds.9 mph86%29.95 "HgN/A
Weather by CustomWeather, © 2014

See weather overviewHow to use our weather pages